{"data":{"norad_id":53813,"epoch":"2026-09-20T01:54:44.878176Z","epoch_age_seconds":54325,"freshness":"FRESH","line1":"1 53813U 22112A   26263.07968609 -.00000154  00000+0  00000+0 0  9991","line2":"2 53813   0.0474 316.5857 0002756 309.1902 203.3278  1.00273136 14807","mean_motion":1.00273136,"eccentricity":0.0002756,"inclination_deg":0.0474,"raan_deg":316.5857,"arg_perigee_deg":309.1902,"mean_anomaly_deg":203.3278,"bstar":0,"rev_number":1480,"period_min":1436.0775552088,"perigee_km":35774.59573535,"apogee_km":35797.836726851,"semimajor_km":42164.3532311,"source":"CELESTRAK","updated_at":"2026-09-20T09:00:35.305878Z"}}